period_start,C,m1,H,J0,J1,J2,J3,J4,J5,JA,JB,JC,JD,JJ,JK,JN,#
2016-05-15 00:04:31,0.03,0.54,0.00,18.43,23.38,27.22,14.67,49.68,1004.90,2053.05,3328.55,3020.02,3419.38,599.88,598.29,16.82,0000 0000 0000 0000 000000
2016-05-15 00:09:32,0.00,0.54,0.00,18.44,23.39,27.22,14.70,49.67,1004.89,2053.04,3328.03,3020.00,3419.01,600.05,598.29,16.87,0000 0000 0000 0000 000000
2016-05-15 00:14:33,0.00,0.54,0.00,18.47,23.39,27.20,14.72,49.83,1004.88,2053.03,3327.92,3019.94,3418.92,599.67,597.99,16.92,0000 0000 0000 0000 000000
2016-05-15 00:19:34,0.04,0.54,0.00,18.49,23.39,27.22,14.71,49.57,1004.90,2053.03,3327.21,3019.34,3418.22,600.53,598.81,16.97,0000 0000 0000 0000 000000
2016-05-15 00:24:36,0.00,0.54,0.00,18.49,23.40,27.21,14.82,49.97,1004.90,2053.02,3327.00,3019.03,3418.01,600.20,598.48,17.02,0000 0000 0000 0000 000000
2016-05-15 00:29:37,-0.00,0.54,0.00,18.52,23.41,27.22,14.67,49.64,1004.90,2053.03,3326.94,3019.00,3417.95,599.68,597.93,17.08,0000 0000 0000 0000 000000
2016-05-15 00:34:38,0.02,0.55,0.00,18.52,23.42,27.22,14.77,49.99,1004.89,2053.01,3326.22,3018.95,3417.33,600.09,598.31,17.13,0000 0000 0000 0000 000000
2016-05-15 00:39:40,0.02,0.55,0.00,18.52,23.42,27.25,14.71,49.77,1004.90,2053.02,3325.99,3018.35,3417.01,600.35,598.57,17.18,0000 0000 0000 0000 000000
2016-05-15 00:44:41,0.02,0.55,0.00,18.53,23.42,27.26,14.65,49.85,1004.90,2053.00,3325.47,3018.02,3416.93,599.48,597.69,17.23,0000 0000 0000 0000 000000
2016-05-15 00:49:42,0.01,0.55,0.00,18.57,23.44,27.25,14.72,49.61,1004.91,2053.00,3325.01,3017.98,3416.18,600.26,598.51,17.28,0000 0000 0000 0000 000000
2016-05-15 00:54:44,0.02,0.55,0.00,18.60,23.45,27.24,14.67,49.62,1005.03,2053.00,3324.78,3017.64,3416.00,599.72,597.79,17.33,0000 0000 0000 0000 000000
2016-05-15 00:59:45,0.02,0.55,0.00,18.59,23.45,27.29,14.71,49.73,1005.34,2053.00,3324.06,3017.04,3415.78,600.15,598.48,17.38,0000 0000 0000 0000 000000
2016-05-15 01:04:46,0.01,0.55,0.00,18.62,23.46,27.30,14.70,49.71,1005.36,2053.01,3323.95,3017.00,3415.13,599.73,598.03,17.43,0000 0000 0000 0000 000000
2016-05-15 01:09:48,0.01,0.55,0.00,18.65,23.47,27.31,14.64,49.41,1005.33,2053.00,3323.27,3016.94,3415.00,599.52,597.72,17.48,0000 0000 0000 0000 000000
2016-05-15 01:14:49,0.03,0.55,0.00,18.68,23.47,27.34,14.62,49.46,1005.26,2053.00,3322.99,3016.21,3414.69,599.74,597.75,17.53,0000 0000 0000 0000 000000
2016-05-15 01:19:50,0.02,0.55,0.00,18.71,23.49,27.34,14.70,49.73,1005.29,2053.00,3322.51,3016.01,3414.05,600.06,598.13,17.58,0000 0000 0000 0000 000000
2016-05-15 01:24:52,0.00,0.56,0.00,18.72,23.50,27.43,14.68,49.58,1005.35,2053.00,3322.01,3015.99,3413.99,599.95,598.19,17.63,0000 0000 0000 0000 000000
2016-05-15 01:29:53,0.02,0.56,0.00,18.75,23.52,27.42,14.60,49.47,1005.37,2053.00,3321.77,3015.70,3413.73,599.91,597.87,17.68,0000 0000 0000 0000 000000
2016-05-15 01:34:54,0.03,0.56,0.00,18.80,23.53,27.41,14.76,49.52,1005.37,2053.00,3321.05,3015.05,3413.04,600.13,598.02,17.73,0000 0000 0000 0000 000000
2016-05-15 01:39:56,0.00,0.56,0.00,18.85,23.55,27.42,14.60,49.30,1005.38,2053.00,3320.77,3014.99,3412.98,599.67,597.53,17.78,0000 0000 0000 0000 000000
2016-05-15 01:44:58,0.02,0.56,0.00,18.87,23.57,27.50,14.73,49.51,1005.39,2052.99,3320.07,3014.74,3412.36,600.37,598.18,17.83,0000 0000 0000 0000 000000
2016-05-15 01:49:59,0.01,0.56,0.00,18.89,23.59,27.57,14.62,49.34,1005.38,2052.98,3319.94,3014.06,3412.00,599.95,597.73,17.88,0000 0000 0000 0000 000000
2016-05-15 01:55:00,0.01,0.56,0.00,18.94,23.61,27.55,14.66,49.24,1005.39,2052.98,3319.23,3014.00,3411.79,599.78,597.43,17.93,0000 0000 0000 0000 000000
2016-05-15 02:00:01,0.01,0.56,0.00,18.96,23.63,27.53,14.77,49.60,1005.39,2052.95,3319.00,3013.86,3411.07,600.36,597.95,17.98,0000 0000 0000 0000 000000
2016-05-15 02:05:02,0.01,0.56,0.00,19.00,23.66,27.61,14.76,49.70,1005.39,2052.86,3318.82,3013.13,3410.99,600.05,597.59,18.03,0000 0000 0000 0000 000000
2016-05-15 02:10:03,-0.01,0.56,0.00,19.04,23.68,27.65,14.68,49.57,1005.42,2052.55,3318.07,3013.00,3410.49,599.75,597.13,18.08,0000 0000 0000 0000 000000
2016-05-15 02:15:04,-0.02,0.56,0.00,19.08,23.71,27.70,14.64,49.23,1005.49,2052.10,3317.89,3012.81,3410.01,599.64,597.14,18.13,0000 0000 0000 0000 000000
2016-05-15 02:20:05,0.03,0.56,0.00,19.12,23.73,27.72,14.70,49.47,1005.56,2052.04,3317.14,3012.11,3409.80,600.19,597.58,18.18,0000 0000 0000 0000 000000
2016-05-15 02:25:07,0.01,0.56,0.00,19.16,23.76,27.75,14.61,49.45,1005.66,2052.02,3316.99,3011.99,3409.08,599.84,597.21,18.23,0000 0000 0000 0000 000000
2016-05-15 02:30:08,0.02,0.57,0.00,19.20,23.78,27.81,14.65,49.46,1005.73,2052.00,3316.26,3011.77,3408.96,599.81,597.19,18.28,0000 0000 0000 0000 000000
2016-05-15 02:35:10,0.02,0.57,0.00,19.24,23.81,27.85,14.62,49.43,1005.85,2052.00,3315.97,3011.08,3408.25,599.72,597.04,18.33,0000 0000 0000 0000 000000
2016-05-15 02:40:11,0.01,0.57,0.00,19.27,23.83,27.89,14.63,49.35,1005.87,2051.99,3315.42,3010.98,3408.00,600.08,597.33,18.38,0000 0000 0000 0000 000000
2016-05-15 02:45:13,0.03,0.57,0.00,19.30,23.86,27.91,14.70,49.51,1005.87,2051.98,3314.97,3010.54,3407.54,599.98,597.03,18.43,0000 0000 0000 0000 000000
2016-05-15 02:50:14,0.02,0.57,0.00,19.34,23.89,27.95,14.71,49.58,1005.87,2051.97,3314.14,3010.01,3407.01,600.30,597.51,18.48,0000 0000 0000 0000 000000
2016-05-15 02:55:16,0.01,0.57,0.00,19.37,23.91,27.95,14.69,49.61,1005.83,2051.91,3313.86,3009.88,3406.57,600.09,597.07,18.53,0000 0000 0000 0000 000000
2016-05-15 03:00:17,0.02,0.57,0.00,19.41,23.94,27.98,14.61,49.64,1005.69,2051.74,3313.08,3009.17,3406.02,599.79,596.65,18.58,0000 0000 0000 0000 000000
2016-05-15 03:05:18,-0.04,0.57,0.00,19.42,23.96,28.04,14.75,49.88,1005.62,2051.27,3312.83,3008.99,3405.63,600.12,596.92,18.63,0000 0000 0000 0000 000000
2016-05-15 03:10:19,0.02,0.57,0.00,19.45,23.99,28.02,14.75,50.02,1005.66,2051.06,3312.06,3008.50,3405.01,600.82,597.58,18.68,0000 0000 0000 0000 000000
2016-05-15 03:15:21,0.02,0.57,0.00,19.46,24.01,28.04,14.71,49.86,1005.85,2051.01,3311.79,3008.01,3404.72,600.34,597.20,18.73,0000 0000 0000 0000 000000
2016-05-15 03:20:22,0.01,0.57,0.00,19.49,24.04,28.08,14.71,49.81,1005.84,2051.00,3311.05,3007.97,3404.05,600.18,597.09,18.78,0000 0000 0000 0000 000000
2016-05-15 03:25:23,0.03,0.58,0.00,19.50,24.07,28.12,14.64,49.75,1005.80,2051.00,3310.69,3007.25,3403.80,599.88,596.65,18.83,0000 0000 0000 0000 000000
2016-05-15 03:30:24,0.02,0.58,0.00,19.52,24.09,28.16,14.74,50.02,1005.62,2050.98,3310.04,3007.00,3403.09,600.23,596.77,18.88,0000 0000 0000 0000 000000
2016-05-15 03:35:25,0.01,0.58,0.00,19.51,24.11,28.17,14.70,50.17,1005.59,2050.97,3309.69,3006.97,3402.88,600.34,596.94,18.93,0000 0000 0000 0000 000000
2016-05-15 03:40:27,0.04,0.58,0.00,19.50,24.13,28.15,14.69,50.00,1005.80,2050.93,3309.03,3006.27,3402.12,600.21,596.87,18.98,0000 0000 0000 0000 000000
2016-05-15 03:45:28,-0.01,0.58,0.00,19.52,24.15,28.09,14.69,49.91,1005.86,2050.77,3308.57,3006.00,3401.98,600.17,596.94,19.03,0000 0000 0000 0000 000000
2016-05-15 03:50:29,-0.01,0.58,0.00,19.54,24.17,28.17,14.63,49.81,1005.87,2050.32,3308.01,3005.77,3401.31,599.97,596.78,19.08,0000 0000 0000 0000 000000
2016-05-15 03:55:31,0.01,0.58,0.00,19.55,24.19,28.19,14.65,49.77,1005.87,2050.10,3307.55,3005.08,3401.00,599.84,596.45,19.13,0000 0000 0000 0000 000000
2016-05-15 04:00:32,0.01,0.58,0.00,19.56,24.21,28.18,14.64,49.74,1005.88,2050.04,3307.01,3005.00,3400.74,599.83,596.40,19.18,0000 0000 0000 0000 000000
2016-05-15 04:05:33,0.02,0.58,0.00,19.58,24.23,28.17,14.65,49.73,1005.87,2050.02,3306.71,3004.87,3400.04,599.87,596.46,19.23,0000 0000 0000 0000 000000
2016-05-15 04:10:34,0.02,0.58,0.00,19.62,24.25,28.18,14.64,49.78,1005.87,2050.01,3306.05,3004.16,3399.97,599.55,596.11,19.28,0000 0000 0000 0000 000000
2016-05-15 04:15:36,0.02,0.58,0.00,19.64,24.27,28.21,14.57,49.64,1005.87,2050.00,3305.71,3004.00,3399.22,599.81,596.32,19.33,0000 0000 0000 0000 000000
2016-05-15 04:20:37,0.01,0.58,0.00,19.65,24.29,28.23,14.66,49.60,1005.89,2049.99,3305.05,3003.85,3398.99,600.08,596.58,19.38,0000 0000 0000 0000 000000
2016-05-15 04:25:38,0.03,0.59,0.00,19.67,24.31,28.22,14.60,49.53,1006.07,2049.98,3304.97,3003.16,3398.62,599.88,596.37,19.43,0000 0000 0000 0000 000000
2016-05-15 04:30:39,0.02,0.59,0.00,19.70,24.32,28.25,14.68,49.48,1006.33,2049.98,3304.24,3002.99,3398.03,599.98,596.59,19.48,0000 0000 0000 0000 000000
2016-05-15 04:35:41,0.01,0.59,0.00,19.71,24.35,28.28,14.73,49.58,1006.36,2049.95,3304.00,3002.87,3397.94,600.35,596.99,19.53,0000 0000 0000 0000 000000
2016-05-15 04:40:42,0.02,0.59,0.00,19.74,24.37,28.28,14.55,49.53,1006.36,2049.81,3303.53,3002.17,3397.24,599.67,596.25,19.58,0000 0000 0000 0000 000000
2016-05-15 04:45:43,-0.03,0.59,0.00,19.77,24.39,28.35,14.67,49.35,1006.36,2049.36,3303.00,3001.99,3396.99,600.12,596.67,19.63,0000 0000 0000 0000 000000
2016-05-15 04:50:44,0.01,0.59,0.00,19.81,24.41,28.37,14.64,49.47,1006.37,2049.15,3302.51,3001.80,3396.60,600.01,596.48,19.68,0000 0000 0000 0000 000000
2016-05-15 04:55:45,0.02,0.59,0.00,19.85,24.43,28.39,14.65,49.42,1006.45,2049.07,3302.02,3001.13,3396.04,599.93,596.35,19.73,0000 0000 0000 0000 000000
2016-05-15 05:00:47,0.00,0.59,0.00,19.90,24.46,28.40,14.60,49.35,1006.75,2049.03,3301.84,3001.00,3395.96,599.76,596.13,19.78,0000 0000 0000 0000 000000
2016-05-15 05:05:48,0.03,0.59,0.00,19.93,24.48,28.45,14.68,49.25,1006.82,2049.01,3301.09,3000.71,3395.25,600.26,596.78,19.83,0000 0000 0000 0000 000000
2016-05-15 05:10:49,0.02,0.59,0.00,19.97,24.51,28.52,14.61,49.35,1006.85,2049.00,3300.69,3000.05,3394.96,599.60,595.96,19.88,0000 0000 0000 0000 000000
2016-05-15 05:15:50,0.02,0.59,0.00,20.03,24.54,28.52,14.63,49.45,1006.85,2049.00,3300.05,2999.98,3394.30,599.91,596.21,19.93,0000 0000 0000 0000 000000
2016-05-15 05:20:52,0.02,0.59,0.00,20.06,24.57,28.54,14.59,49.60,1006.73,2048.98,3299.85,2999.42,3393.99,599.96,596.03,19.98,0000 0000 0000 0000 000000
2016-05-15 05:25:53,0.02,0.59,0.00,20.09,24.60,28.59,14.62,49.75,1006.45,2048.96,3299.13,2999.01,3393.52,600.16,596.06,20.03,0000 0000 0000 0000 000000
2016-05-15 05:30:54,-0.02,0.60,0.00,20.12,24.63,28.61,14.67,49.91,1006.39,2048.82,3298.93,2998.87,3393.02,600.05,595.88,20.08,0000 0000 0000 0000 000000
2016-05-15 05:35:55,0.00,0.60,0.00,20.16,24.66,28.65,14.62,49.67,1006.40,2048.35,3298.11,2998.10,3392.55,600.04,595.87,20.13,0000 0000 0000 0000 000000
2016-05-15 05:40:57,-0.01,0.59,0.00,20.18,24.69,28.74,14.68,49.67,1006.71,2048.08,3297.82,2997.99,3392.02,599.97,595.93,20.18,0000 0000 0000 0000 000000
2016-05-15 05:45:58,0.03,0.60,0.00,20.22,24.72,28.73,14.60,49.57,1006.83,2048.01,3297.08,2997.44,3391.69,599.78,595.62,20.23,0000 0000 0000 0000 000000
2016-05-15 05:51:00,0.01,0.60,0.00,20.26,24.75,28.70,14.60,49.73,1006.83,2048.00,3296.83,2997.01,3391.04,599.85,595.64,20.28,0000 0000 0000 0000 000000
2016-05-15 05:56:01,0.01,0.60,0.00,20.30,24.78,28.77,14.67,49.58,1006.82,2047.99,3296.06,2996.87,3390.96,600.26,596.00,20.33,0000 0000 0000 0000 000000
2016-05-15 06:01:02,0.04,0.60,0.00,20.32,24.81,28.79,14.58,49.60,1006.73,2047.96,3295.72,2996.10,3390.25,599.82,595.51,20.38,0000 0000 0000 0000 000000
2016-05-15 06:06:03,-0.01,0.60,0.00,20.34,24.84,28.79,14.63,49.77,1006.56,2047.79,3295.04,2996.00,3389.99,600.05,595.50,20.43,0000 0000 0000 0000 000000
2016-05-15 06:11:05,-0.01,0.60,0.00,20.37,24.87,28.86,14.66,49.91,1006.43,2047.21,3294.60,2995.41,3389.23,599.88,595.22,20.48,0000 0000 0000 0000 000000
2016-05-15 06:16:06,0.00,0.60,0.00,20.41,24.90,28.91,14.67,49.81,1006.38,2047.05,3294.04,2995.02,3389.00,600.51,595.75,20.54,0000 0000 0000 0000 000000
2016-05-15 06:21:07,0.02,0.60,0.00,20.44,24.93,28.91,14.67,49.52,1006.37,2047.01,3293.61,2994.93,3388.50,600.52,595.63,20.59,0000 0000 0000 0000 000000
2016-05-15 06:26:09,0.03,0.60,0.00,20.47,24.96,28.91,14.59,49.63,1006.36,2047.01,3293.01,2994.22,3388.01,600.00,595.13,20.64,0000 0000 0000 0000 000000
2016-05-15 06:31:10,0.02,0.60,0.00,20.50,24.98,28.96,14.66,49.77,1006.38,2047.00,3292.42,2994.00,3387.68,600.11,595.16,20.69,0000 0000 0000 0000 000000
2016-05-15 06:36:11,0.02,0.60,0.00,20.55,25.01,29.00,14.65,49.76,1006.38,2047.00,3292.01,2993.72,3387.03,600.31,595.20,20.74,0000 0000 0000 0000 000000
2016-05-15 06:41:12,0.03,0.61,0.00,20.58,25.03,29.04,14.62,49.79,1006.50,2047.00,3291.46,2993.04,3386.66,599.93,594.86,20.79,0000 0000 0000 0000 000000
2016-05-15 06:46:14,0.01,0.61,0.00,20.59,25.06,29.05,14.62,49.76,1006.78,2047.00,3290.99,2992.92,3386.03,600.03,595.07,20.84,0000 0000 0000 0000 000000
2016-05-15 06:51:15,0.04,0.61,0.00,20.62,25.09,29.10,14.61,49.60,1006.85,2047.00,3290.31,2992.19,3385.87,600.02,595.16,20.89,0000 0000 0000 0000 000000
2016-05-15 06:56:16,0.01,0.61,0.00,20.67,25.12,29.12,14.52,49.45,1006.88,2046.97,3289.98,2992.00,3385.10,599.90,595.04,20.94,0000 0000 0000 0000 000000
2016-05-15 07:01:17,0.02,0.61,0.00,20.70,25.15,29.21,14.54,49.42,1007.16,2046.94,3289.31,2991.81,3384.92,599.79,594.82,20.99,0000 0000 0000 0000 000000
2016-05-15 07:06:18,-0.01,0.61,0.00,20.74,25.17,29.14,14.54,49.27,1007.32,2046.61,3288.97,2991.10,3384.19,599.82,594.99,21.04,0000 0000 0000 0000 000000
2016-05-15 07:11:20,-0.01,0.61,0.00,20.77,25.20,29.22,14.57,49.40,1007.32,2046.27,3288.47,2990.98,3383.99,600.01,595.08,21.09,0000 0000 0000 0000 000000
2016-05-15 07:16:21,0.02,0.61,0.00,20.81,25.23,29.23,14.49,49.38,1007.34,2046.06,3288.00,2990.44,3383.30,599.86,594.88,21.14,0000 0000 0000 0000 000000
2016-05-15 07:21:22,0.01,0.61,0.00,20.85,25.26,29.24,14.60,49.58,1007.34,2046.01,3287.27,2990.01,3382.99,599.98,594.80,21.19,0000 0000 0000 0000 000000
2016-05-15 07:26:24,0.01,0.61,0.00,20.89,25.29,29.28,14.63,49.67,1007.34,2046.00,3286.97,2989.89,3382.41,599.89,594.76,21.24,0000 0000 0000 0000 000000
2016-05-15 07:31:25,0.04,0.61,0.00,20.92,25.32,29.34,14.60,49.75,1007.34,2046.00,3286.25,2989.14,3382.00,600.15,594.94,21.29,0000 0000 0000 0000 000000
2016-05-15 07:36:26,0.01,0.62,0.00,20.96,25.36,29.37,14.61,49.52,1007.34,2045.99,3285.92,2988.98,3381.36,600.05,594.81,21.34,0000 0000 0000 0000 000000
2016-05-15 07:41:28,0.03,0.62,0.00,20.99,25.39,29.41,14.56,49.38,1007.52,2045.95,3285.14,2988.37,3381.00,599.85,594.42,21.39,0000 0000 0000 0000 000000
2016-05-15 07:46:29,-0.01,0.62,0.00,21.02,25.42,29.43,14.57,49.23,1007.78,2045.62,3284.71,2988.00,3380.46,599.69,594.52,21.44,0000 0000 0000 0000 000000
2016-05-15 07:51:31,-0.00,0.62,0.00,21.06,25.45,29.49,14.60,49.38,1007.82,2045.20,3284.02,2987.72,3379.99,599.96,594.85,21.49,0000 0000 0000 0000 000000
2016-05-15 07:56:32,0.02,0.62,0.00,21.11,25.49,29.48,14.57,49.62,1007.83,2045.03,3283.58,2987.04,3379.34,600.12,594.60,21.54,0000 0000 0000 0000 000000
2016-05-15 08:01:33,0.00,0.62,0.00,21.16,25.52,29.49,14.51,49.42,1007.83,2045.00,3283.01,2986.89,3378.98,600.09,594.50,21.59,0000 0000 0000 0000 000000
2016-05-15 08:06:35,0.05,0.62,0.00,21.20,25.55,29.54,14.61,49.38,1007.83,2044.99,3282.27,2986.10,3378.26,600.07,594.47,21.64,0000 0000 0000 0000 000000
2016-05-15 08:11:36,0.00,0.62,0.00,21.23,25.59,29.58,14.52,49.36,1007.84,2044.96,3281.89,2985.93,3377.92,600.09,594.55,21.69,0000 0000 0000 0000 000000
2016-05-15 08:16:37,0.03,0.62,0.00,21.28,25.62,29.62,14.54,49.38,1007.84,2044.84,3281.10,2985.22,3377.13,600.06,594.47,21.74,0000 0000 0000 0000 000000
2016-05-15 08:21:38,-0.04,0.62,0.00,21.33,25.66,29.67,14.57,49.33,1007.89,2044.46,3280.91,2985.00,3376.95,600.29,594.70,21.79,0000 0000 0000 0000 000000
2016-05-15 08:26:40,0.02,0.62,0.00,21.38,25.70,29.69,14.59,49.31,1008.23,2044.06,3280.09,2984.53,3376.17,599.93,594.19,21.84,0000 0000 0000 0000 000000
2016-05-15 08:31:41,0.00,0.62,0.00,21.42,25.74,29.72,14.61,49.29,1008.32,2044.00,3279.83,2984.01,3375.96,600.20,594.39,21.89,0000 0000 0000 0000 000000
2016-05-15 08:36:43,0.03,0.62,0.00,21.44,25.78,29.80,14.55,49.28,1008.34,2044.00,3279.08,2983.82,3375.18,599.61,593.97,21.94,0000 0000 0000 0000 000000
2016-05-15 08:41:44,0.03,0.63,0.00,21.48,25.81,29.78,14.60,49.21,1008.41,2043.99,3278.60,2983.09,3374.93,600.05,594.23,21.99,0000 0000 0000 0000 000000
2016-05-15 08:46:45,0.01,0.63,0.00,21.52,25.86,29.85,14.56,49.33,1008.60,2043.97,3278.01,2982.95,3374.14,600.02,594.31,22.04,0000 0000 0000 0000 000000
2016-05-15 08:51:46,-0.00,0.63,0.00,21.56,25.89,29.91,14.49,49.19,1008.62,2043.56,3277.39,2982.14,3373.83,599.97,594.18,22.09,0000 0000 0000 0000 000000
2016-05-15 08:56:47,-0.01,0.63,0.00,21.59,25.94,29.92,14.54,49.21,1008.70,2043.21,3277.00,2981.98,3373.13,600.13,594.39,22.14,0000 0000 0000 0000 000000
2016-05-15 09:01:49,0.03,0.63,0.00,21.63,25.98,29.96,14.57,49.25,1008.79,2043.02,3276.36,2981.39,3372.72,600.22,594.52,22.19,0000 0000 0000 0000 000000
2016-05-15 09:06:50,0.01,0.63,0.00,21.67,26.03,30.02,14.59,49.28,1008.80,2043.00,3275.93,2980.99,3372.02,599.97,594.08,22.24,0000 0000 0000 0000 000000
2016-05-15 09:11:51,0.05,0.63,0.00,21.86,26.08,29.94,14.48,49.17,1008.80,2042.99,3275.13,2980.43,3371.49,600.28,594.12,22.29,0000 0000 0000 0000 000000
2016-05-15 09:16:52,-0.03,0.63,0.00,22.63,26.14,29.72,14.40,48.98,1008.80,2042.73,3274.78,2979.96,3370.88,599.89,591.98,22.34,0000 0000 0000 0000 000000
2016-05-15 09:21:53,0.00,0.63,0.00,23.08,26.22,29.66,14.42,49.02,1008.81,2042.09,3274.03,2979.16,3370.08,600.24,591.38,22.39,0000 0000 0000 0000 000000
2016-05-15 09:26:54,0.05,0.63,0.00,23.29,26.31,29.76,14.40,48.89,1008.81,2041.99,3273.31,2978.55,3369.26,599.94,590.82,22.44,0000 0000 0000 0000 000000
2016-05-15 09:31:56,-0.00,0.63,0.00,23.46,26.39,29.92,14.38,48.80,1008.97,2041.67,3272.49,2977.83,3368.31,600.08,590.79,22.49,0000 0000 0000 0000 000000
2016-05-15 09:36:57,0.00,0.63,0.00,23.57,26.48,30.00,14.37,48.73,1009.18,2041.04,3271.69,2977.00,3367.42,599.89,590.47,22.54,0000 0000 0000 0000 000000
2016-05-15 09:41:58,0.05,0.63,0.00,23.66,26.58,30.04,14.40,48.75,1009.29,2040.95,3270.77,2976.14,3366.51,600.42,590.90,22.59,0000 0000 0000 0000 000000
2016-05-15 09:47:00,-0.03,0.63,0.00,23.74,26.66,30.11,14.32,48.63,1009.30,2040.23,3269.88,2975.35,3365.58,600.10,590.37,22.64,0000 0000 0000 0000 000000
2016-05-15 09:52:01,0.04,0.63,0.00,23.80,26.76,30.20,14.39,48.73,1009.35,2040.00,3269.05,2974.58,3364.76,600.44,590.51,22.69,0000 0000 0000 0000 000000
2016-05-15 09:57:03,0.00,0.64,0.00,23.87,26.85,30.27,14.37,48.74,1009.46,2039.74,3268.17,2973.82,3363.84,600.01,590.12,22.74,0000 0000 0000 0000 000000
2016-05-15 10:02:04,-0.00,0.64,0.00,23.91,26.94,30.34,14.32,48.73,1009.70,2039.06,3267.31,2973.03,3362.96,599.62,589.78,22.79,0000 0000 0000 0000 000000
2016-05-15 10:07:05,0.04,0.64,0.00,23.94,27.03,30.38,14.33,48.75,1009.76,2038.98,3266.60,2972.27,3362.06,599.85,590.00,22.84,0000 0000 0000 0000 000000
2016-05-15 10:12:07,-0.03,0.64,0.00,23.99,27.12,30.43,14.38,48.80,1009.78,2038.48,3265.86,2971.69,3361.21,599.92,589.80,22.89,0000 0000 0000 0000 000000
2016-05-15 10:17:08,0.02,0.64,0.00,23.97,27.21,30.50,14.35,48.88,1009.78,2038.01,3264.91,2970.86,3360.23,599.95,590.08,22.94,0000 0000 0000 0000 000000
2016-05-15 10:22:09,0.05,0.64,0.00,23.95,27.30,30.52,14.36,48.64,1009.78,2037.86,3263.99,2969.75,3359.03,600.21,590.35,22.99,0000 0000 0000 0000 000000
2016-05-15 10:27:11,-0.02,0.64,0.00,24.00,27.38,30.60,14.44,48.67,1009.78,2037.17,3263.10,2968.99,3358.16,600.04,590.15,23.04,0000 0000 0000 0000 000000
2016-05-15 10:32:12,0.05,0.64,0.00,24.02,27.45,30.71,14.32,48.75,1009.78,2037.00,3262.39,2968.15,3357.26,599.71,589.65,23.09,0000 0000 0000 0000 000000
2016-05-15 10:37:13,0.01,0.64,0.00,24.05,27.53,30.82,14.36,48.78,1009.78,2036.77,3261.60,2967.60,3356.54,600.07,589.95,23.14,0000 0000 0000 0000 000000
2016-05-15 10:42:15,-0.02,0.64,0.00,24.10,27.60,30.92,14.36,48.86,1009.78,2036.06,3260.76,2966.90,3355.74,600.32,590.11,23.19,0000 0000 0000 0000 000000
2016-05-15 10:47:16,0.04,0.64,0.00,24.10,27.67,31.00,14.37,48.81,1009.79,2036.00,3259.97,2966.11,3354.95,599.96,589.82,23.24,0000 0000 0000 0000 000000
2016-05-15 10:52:17,0.01,0.64,0.00,24.05,27.73,31.04,14.44,48.81,1009.80,2035.74,3259.09,2965.49,3354.10,600.04,589.87,23.29,0000 0000 0000 0000 000000
2016-05-15 10:57:19,-0.02,0.64,0.00,24.07,27.80,31.08,14.37,48.55,1009.80,2035.06,3258.28,2964.96,3353.26,600.00,589.88,23.34,0000 0000 0000 0000 000000
2016-05-15 11:02:20,0.04,0.64,0.00,24.12,27.86,31.23,14.35,48.58,1009.80,2035.00,3257.89,2964.14,3352.68,599.88,589.50,23.39,0000 0000 0000 0000 000000
2016-05-15 11:07:21,0.02,0.65,0.00,24.15,27.92,31.27,14.35,48.56,1009.80,2034.98,3257.09,2963.96,3352.02,599.76,589.55,23.44,0000 0000 0000 0000 000000
2016-05-15 11:12:22,-0.02,0.65,0.00,24.21,27.98,31.29,14.40,48.75,1009.93,2034.49,3256.54,2963.16,3351.38,599.88,589.67,23.49,0000 0000 0000 0000 000000
2016-05-15 11:17:23,0.02,0.65,0.00,24.30,28.04,31.32,14.28,48.63,1010.15,2034.02,3255.75,2962.62,3350.76,599.74,589.43,23.54,0000 0000 0000 0000 000000
2016-05-15 11:22:24,0.02,0.65,0.00,24.33,28.10,31.33,14.24,48.49,1010.13,2033.99,3254.97,2962.01,3350.03,599.89,589.53,23.59,0000 0000 0000 0000 000000
2016-05-15 11:27:26,0.04,0.65,0.00,24.37,28.15,31.33,14.38,48.65,1010.15,2033.96,3254.21,2961.52,3349.39,600.18,589.69,23.64,0000 0000 0000 0000 000000
2016-05-15 11:32:27,-0.02,0.65,0.00,24.41,28.19,31.33,14.35,48.49,1010.14,2033.60,3253.71,2961.02,3348.90,599.91,589.34,23.70,0000 0000 0000 0000 000000
2016-05-15 11:37:28,0.00,0.65,0.00,24.45,28.24,31.33,14.39,48.53,1010.21,2033.07,3253.02,2960.50,3348.11,599.89,589.30,23.75,0000 0000 0000 0000 000000
2016-05-15 11:42:29,0.02,0.65,0.00,24.49,28.28,31.37,14.37,48.52,1010.24,2033.00,3252.67,2960.01,3347.79,599.75,589.14,23.80,0000 0000 0000 0000 000000
2016-05-15 11:47:31,0.02,0.65,0.00,24.51,28.31,31.43,14.33,48.48,1010.26,2032.99,3252.03,2959.79,3347.05,600.22,589.52,23.85,0000 0000 0000 0000 000000
2016-05-15 11:52:32,0.03,0.65,0.00,24.53,28.35,31.45,14.35,48.55,1010.26,2032.96,3251.41,2959.08,3346.76,599.74,589.13,23.90,0000 0000 0000 0000 000000
2016-05-15 11:57:33,-0.03,0.65,0.00,24.53,28.38,31.45,14.41,48.81,1010.25,2032.68,3251.06,2958.98,3346.05,599.94,589.20,23.95,0000 0000 0000 0000 000000
2016-05-15 12:02:35,-0.02,0.65,0.00,24.56,28.41,31.44,14.38,48.67,1010.24,2032.20,3250.81,2958.44,3345.89,600.38,589.57,24.00,0000 0000 0000 0000 000000
2016-05-15 12:07:36,0.02,0.65,0.00,24.56,28.43,31.44,14.27,48.43,1010.24,2032.02,3250.09,2958.02,3345.11,599.67,588.86,24.05,0000 0000 0000 0000 000000
2016-05-15 12:12:37,0.02,0.65,0.00,24.55,28.45,31.44,14.35,48.58,1010.27,2032.01,3249.44,2957.77,3344.81,599.75,588.95,24.10,0000 0000 0000 0000 000000
2016-05-15 12:17:38,0.03,0.66,0.00,24.55,28.47,31.45,14.40,48.62,1010.26,2032.00,3248.78,2957.04,3344.05,600.18,589.33,24.15,0000 0000 0000 0000 000000
2016-05-15 12:22:39,0.02,0.66,0.00,24.55,28.47,31.47,14.34,48.49,1010.26,2032.00,3248.02,2956.85,3343.73,600.31,589.53,24.20,0000 0000 0000 0000 000000
2016-05-15 12:27:41,0.04,0.66,0.00,24.54,28.49,31.43,14.40,48.53,1010.26,2032.00,3247.21,2956.09,3343.03,599.98,589.09,24.25,0000 0000 0000 0000 000000
2016-05-15 12:32:42,0.02,0.66,0.00,24.54,28.50,31.45,14.32,48.68,1010.24,2031.97,3246.59,2955.94,3342.54,599.75,589.13,24.30,0000 0000 0000 0000 000000
2016-05-15 12:37:43,0.04,0.66,0.00,24.51,28.50,31.46,14.41,48.66,1010.24,2031.98,3245.77,2955.15,3342.01,600.08,589.28,24.35,0000 0000 0000 0000 000000
2016-05-15 12:42:45,0.02,0.66,0.00,24.50,28.50,31.47,14.38,48.68,1010.25,2031.95,3245.02,2954.97,3341.31,599.96,589.28,24.40,0000 0000 0000 0000 000000
2016-05-15 12:47:46,0.02,0.66,0.00,24.48,28.50,31.47,14.39,48.74,1010.25,2031.85,3244.25,2954.27,3340.99,600.10,589.50,24.45,0000 0000 0000 0000 000000
2016-05-15 12:52:47,-0.03,0.66,0.00,24.53,28.50,31.46,14.38,48.69,1010.25,2031.40,3243.95,2954.00,3340.28,600.17,589.41,24.50,0000 0000 0000 0000 000000
2016-05-15 12:57:49,0.02,0.66,0.00,24.55,28.50,31.46,14.34,48.62,1010.25,2031.26,3243.12,2953.84,3340.02,599.58,588.71,24.55,0000 0000 0000 0000 000000